Frankford, WV

11:24 AM EST on February 27, 2017 (GMT -0500)
Greenbrier Valley

Weather History for KLWB - September, 2013

Change the Weather History Date:

Friday, September 6, 2013

  Actual Average Record
Temperature  
Mean Temperature 63 °F 65 °F  
Max Temperature 73 °F 78 °F 91 °F (2007)
Min Temperature 53 °F 53 °F 41 °F (1950)
Degree Days  
Heating Degree Days 2 2  
Month to date heating degree days 9  
Since 1 July heating degree days 37  
Cooling Degree Days 0 2  
Month to date cooling degree days 16  
Year to date cooling degree days 466  
Growing Degree Days 13 (Base 50)    
Moisture  
Dew Point 51 °F    
Average Humidity 75    
Maximum Humidity 100    
Minimum Humidity 36    
Precipitation  
Precipitation 0.00 in - 0.51 in (2011)
Snow  
Snow 0.00 in - - ()
Month to date snowfall  
Since 1 July snowfall  
Since 1 September snowfall  
Snow Depth -    
Sea Level Pressure  
Sea Level Pressure 30.23 in    
Wind  
Wind Speed 1 mph (West)    
Max Wind Speed 6 mph    
Max Gust Speed -    
Visibility 6 miles    
Events Fog    
T = Trace of Precipitation, MM = Missing Value Source: NWS Daily Summary

Daily Weather History Graph

Daily Weather History Graph

Search for Another Location

Airport or City:

Trip Planner

Search our weather history database for the weather conditions in past years. The results will help you decide how hot, cold, wet, or windy it might be!

Date:

Astronomy

Sep. 06, 2013 Rise Set
Actual Time 6:56 AM EDT 7:43 PM EDT
Civil Twilight 6:29 AM EDT 8:09 PM EDT
Nautical Twilight 5:57 AM EDT 8:41 PM EDT
Astronomical Twilight 5:25 AM EDT 9:13 PM EDT
Moon 8:04 AM EDT (9/6) 8:09 PM EDT (9/6)
Length of Visible Light 13h 40m
Length of Day
12h 47m
New Moon, 1% of the Moon is Illuminated
Sep 6
New Moon
Sep 12
First Quarter
Sep 19
Full
Sep 26
Last Quarter
Oct 4
New

Hourly Weather History & Observations

Time (EDT) Temp. Dew Point Humidity Pressure Visibility Wind Dir Wind Speed Gust Speed Precip Events Conditions
12:15 AM 59.0 °F 55.4 °F 88% 30.24 in 10.0 mi Calm Calm - N/A   Scattered Clouds
12:35 AM 57.2 °F 53.6 °F 88% 30.24 in 10.0 mi Calm Calm - N/A   Scattered Clouds
12:55 AM 55.4 °F 53.6 °F 94% 30.24 in 5.0 mi Calm Calm - N/A   Scattered Clouds
1:15 AM 57.2 °F 55.4 °F 94% 30.25 in 7.0 mi Calm Calm - N/A   Clear
1:35 AM 55.4 °F 53.6 °F 94% 30.25 in 7.0 mi Calm Calm - N/A   Clear
1:55 AM 53.6 °F 51.8 °F 94% 30.24 in 7.0 mi Calm Calm - N/A   Clear
2:15 AM 53.6 °F 51.8 °F 94% 30.24 in 3.0 mi Calm Calm - N/A   Clear
2:35 AM 53.6 °F 51.8 °F 94% 30.24 in 0.2 mi Calm Calm - N/A Fog Fog
2:55 AM 53.6 °F 51.8 °F 94% 30.23 in 0.2 mi Calm Calm - N/A Fog Fog
3:15 AM 53.6 °F 51.8 °F 94% 30.23 in 0.2 mi Calm Calm - N/A Fog Fog
3:35 AM 53.6 °F 51.8 °F 94% 30.23 in 0.2 mi Calm Calm - N/A Fog Fog
3:55 AM 53.6 °F 51.8 °F 94% 30.24 in 0.2 mi Calm Calm - N/A Fog Fog
4:15 AM 53.6 °F 51.8 °F 94% 30.23 in 0.2 mi Calm Calm - N/A Fog Fog
4:35 AM 53.6 °F 51.8 °F 94% 30.24 in 0.2 mi NNE 4.6 mph - N/A Fog Fog
4:55 AM 53.6 °F 51.8 °F 94% 30.24 in 0.2 mi Calm Calm - N/A Fog Fog
5:15 AM 53.6 °F 51.8 °F 94% 30.24 in 0.2 mi Calm Calm - N/A Fog Fog
5:35 AM 53.6 °F 51.8 °F 94% 30.24 in 0.2 mi NNE 3.5 mph - N/A Fog Fog
5:55 AM 53.6 °F 51.8 °F 94% 30.25 in 0.2 mi NNE 3.5 mph - N/A Fog Fog
6:15 AM 53.6 °F 51.8 °F 94% 30.26 in 0.2 mi Calm Calm - N/A Fog Fog
6:35 AM 53.6 °F 51.8 °F 94% 30.26 in 0.2 mi Calm Calm - N/A Fog Fog
6:55 AM 53.6 °F 51.8 °F 94% 30.26 in 0.2 mi Calm Calm - N/A Fog Fog
7:15 AM 53.6 °F 51.8 °F 94% 30.27 in 0.2 mi North 3.5 mph - N/A Fog Fog
7:35 AM 53.6 °F 51.8 °F 94% 30.27 in 0.2 mi Calm Calm - N/A Fog Fog
7:55 AM 53.6 °F 53.6 °F 100% 30.28 in 0.2 mi Calm Calm - N/A Fog Fog
8:15 AM 55.4 °F 53.6 °F 94% 30.28 in 0.2 mi Calm Calm - N/A Fog Fog
8:35 AM 53.6 °F 53.6 °F 100% 30.28 in 0.2 mi Calm Calm - N/A Fog Fog
8:55 AM 55.4 °F 53.6 °F 94% 30.28 in 0.2 mi Calm Calm - N/A Fog Fog
9:15 AM 55.4 °F 53.6 °F 94% 30.28 in 0.2 mi Calm Calm - N/A Fog Fog
9:35 AM 55.4 °F 53.6 °F 94% 30.28 in 0.5 mi Calm Calm - N/A Fog Fog
9:55 AM 55.4 °F 53.6 °F 94% 30.28 in 1.0 mi Calm Calm - N/A   Overcast
10:15 AM 55.4 °F 55.4 °F 100% 30.28 in 4.0 mi Calm Calm - N/A   Overcast
10:35 AM 59.0 °F 55.4 °F 88% 30.28 in 5.0 mi Calm Calm - N/A   Overcast
10:55 AM 59.0 °F 57.2 °F 94% 30.28 in 10.0 mi SSW 3.5 mph - N/A   Overcast
11:15 AM 60.8 °F 55.4 °F 82% 30.28 in 10.0 mi Calm Calm - N/A   Mostly Cloudy
11:35 AM 60.8 °F 53.6 °F 77% 30.28 in 10.0 mi Calm Calm - N/A   Scattered Clouds
11:55 AM 64.4 °F 53.6 °F 68% 30.27 in 10.0 mi Calm Calm - N/A   Scattered Clouds
12:15 PM 64.4 °F 51.8 °F 64% 30.27 in 10.0 mi SW 4.6 mph - N/A   Scattered Clouds
12:35 PM 66.2 °F 50.0 °F 56% 30.26 in 10.0 mi WNW 4.6 mph - N/A   Scattered Clouds
12:55 PM 68.0 °F 50.0 °F 52% 30.26 in 10.0 mi WSW 4.6 mph - N/A   Scattered Clouds
1:15 PM 68.0 °F 51.8 °F 56% 30.26 in 10.0 mi South 3.5 mph - N/A   Clear
1:35 PM 69.8 °F 50.0 °F 49% 30.25 in 10.0 mi West 5.8 mph - N/A   Clear
1:55 PM 69.8 °F 50.0 °F 49% 30.25 in 10.0 mi WNW 3.5 mph - N/A   Clear
2:15 PM 69.8 °F 50.0 °F 49% 30.24 in 10.0 mi West 3.5 mph - N/A   Clear
2:35 PM 71.6 °F 46.4 °F 41% 30.23 in 10.0 mi Calm Calm - N/A   Clear
2:55 PM 71.6 °F 46.4 °F 41% 30.22 in 10.0 mi Calm Calm - N/A   Clear
3:15 PM 71.6 °F 46.4 °F 41% 30.22 in 10.0 mi SW 4.6 mph - N/A   Clear
3:35 PM 71.6 °F 44.6 °F 38% 30.21 in 10.0 mi SSW 3.5 mph - N/A   Clear
3:55 PM 71.6 °F 44.6 °F 38% 30.21 in 10.0 mi SSW 3.5 mph - N/A   Clear
4:15 PM 71.6 °F 44.6 °F 38% 30.20 in 10.0 mi NW 4.6 mph - N/A   Clear
4:35 PM 71.6 °F 44.6 °F 38% 30.20 in 10.0 mi NW 3.5 mph - N/A   Clear
4:55 PM 71.6 °F 44.6 °F 38% 30.19 in 10.0 mi West 4.6 mph - N/A   Clear
5:15 PM 71.6 °F 44.6 °F 38% 30.19 in 10.0 mi Calm Calm - N/A   Clear
5:35 PM 73.4 °F 44.6 °F 36% 30.19 in 10.0 mi Calm Calm - N/A   Clear
5:55 PM 71.6 °F 46.4 °F 41% 30.19 in 10.0 mi Calm Calm - N/A   Clear
6:15 PM 71.6 °F 46.4 °F 41% 30.19 in 10.0 mi SW 3.5 mph - N/A   Clear
6:35 PM 71.6 °F 48.2 °F 43% 30.19 in 10.0 mi SW 3.5 mph - N/A   Clear
6:55 PM 71.6 °F 48.2 °F 43% 30.19 in 10.0 mi Calm Calm - N/A   Clear
7:15 PM 69.8 °F 51.8 °F 53% 30.19 in 10.0 mi Calm Calm - N/A   Clear
7:35 PM 66.2 °F 51.8 °F 60% 30.18 in 10.0 mi Calm Calm - N/A   Clear
7:55 PM 62.6 °F 51.8 °F 68% 30.19 in 10.0 mi Calm Calm - N/A   Clear
8:15 PM 64.4 °F 51.8 °F 64% 30.19 in 10.0 mi Calm Calm - N/A   Clear
8:35 PM 60.8 °F 51.8 °F 72% 30.19 in 10.0 mi Calm Calm - N/A   Clear
8:55 PM 60.8 °F 51.8 °F 72% 30.20 in 10.0 mi Calm Calm - N/A   Clear
9:15 PM 59.0 °F 53.6 °F 82% 30.20 in 10.0 mi Calm Calm - N/A   Clear
9:35 PM 59.0 °F 51.8 °F 77% 30.20 in 10.0 mi Calm Calm - N/A   Clear
9:55 PM 57.2 °F 53.6 °F 88% 30.20 in 10.0 mi Calm Calm - N/A   Clear
10:15 PM 55.4 °F 51.8 °F 88% 30.20 in 10.0 mi Calm Calm - N/A   Clear
10:35 PM 55.4 °F 51.8 °F 88% 30.20 in 10.0 mi Calm Calm - N/A   Clear
10:55 PM 55.4 °F 51.8 °F 88% 30.20 in 10.0 mi Calm Calm - N/A   Clear
11:15 PM 55.4 °F 51.8 °F 88% 30.21 in 10.0 mi Calm Calm - N/A   Clear
11:35 PM 53.6 °F 51.8 °F 94% 30.21 in 10.0 mi Calm Calm - N/A   Clear
11:55 PM 55.4 °F 51.8 °F 88% 30.20 in 10.0 mi Calm Calm - N/A   Clear